Location: Asheville, NC
(35.6000°N, 82.5500°W)
Time: 15:19:15
(UTC-04:00)

XW-2A - Pass Details

Date: 17 March 2018
Orbit: 435 x 454 km, 97.4° (Epoch: 25 June)

Event Time Altitude Azimuth Distance (km) Brightness Sun altitude
Exits shadow 20:47:44 - 169° (SSE) 2,230 ? -14.6°
Reaches altitude 10° 20:49:21 10° 169° (S) 1,532 ? -15.0°
Maximum altitude 20:52:38 85° 259° (W) 441 ? -15.6°
Drops below altitude 10° 20:55:57 10° 347° (NNW) 1,550 ? -16.3°
Sets 20:57:58 0° 348° (NNW) 2,427 ? -16.7°
